Skip Page Navigation
NASA JPL Caltech
NASA Logo - Jet Propulsion Laboratory + View the NASA Portal
+ Center for Near-Earth Object Studies
JPL Home Earth Solar System Stars & Galaxies Technology
JPL Solar System Dynamics
BODIES ORBITS EPHEMERIDES TOOLS PHYSICAL DATA DISCOVERY FAQ SITE MAP
JPL Small-Body Database Browser
Search: [ help ]  
357997 (2006 DL49)
Classification: Main-belt Asteroid          SPK-ID: 2357997
Ephemeris | Orbit Diagram | Orbital Elements | Mission Design | Physical Parameters | Discovery Circumstances | Close-Approach Data ]

[ hide orbit diagram ]

For accurate long-term ephemerides, please instead use our Horizons system.This orbit viewer was implemented using two-body methods, and hence should not be used for determining accurate long-term trajectories (over several years or decades) or planetary encounter circumstances.


[ revert to old Java-based viewer ]

Orbital Elements at Epoch 2459000.5 (2020-May-31.0) TDB
Reference: JPL 13 (heliocentric ecliptic J2000)
 Element Value Uncertainty (1-sigma)   Units 
e .1739518934929211 4.6377e-08  
a 2.302198995999307 1.3428e-08 au
q 1.901727121447725 1.0365e-07 au
i 3.161015690585001 6.1679e-06 deg
node 35.83243431088736 0.00010255 deg
peri 76.80731342692611 0.00010596 deg
M 66.90263284401949 2.3829e-05 deg
tp 2458763.388059132843
(2019-Oct-06.88805913)
8.3591e-05 TDB
period 1275.888482762555
3.49
1.1163e-05
3.056e-08
d
yr
n .2821563207628676 2.4686e-09 deg/d
Q 2.702670870550888 1.5764e-08 au
  Orbit Determination Parameters
   # obs. used (total)      193  
   data-arc span      6735 days (18.44 yr)  
   first obs. used      2001-11-19  
   last obs. used      2020-04-28  
   planetary ephem.      DE431  
   SB-pert. ephem.      SB431-N16  
   condition code      0  
   norm. resid. RMS      .56623  
   source      ORB  
   producer      Otto Matic  
   solution date      2020-May-21 23:20:21  

Additional Information
 Earth MOID = .921236 au 
 Jupiter MOID = 2.40523 au 
 T_jup = 3.568 
[ show covariance matrix ]

Ephemeris | Orbit Diagram | Orbital Elements | Mission Design | Physical Parameters | Discovery Circumstances | Close-Approach Data ]

Physical Parameter Table
Parameter Symbol Value Units Sigma Reference Notes
absolute magnitude H 17.7   n/a MPO455584  

357997 (2006 DL49)          Discovered 2006-Feb-21 by CSS at Catalina
Reference: 20130327/Numbers.arcLast Updated: 2013-03-29

[ show close-approach data ]
Alternate Designations
 2006 DL49 = 2001 WP59 
Ephemeris | Orbit Diagram | Orbital Elements | Mission Design | Physical Parameters | Discovery Circumstances | Close-Approach Data ]
ABOUT SSD CREDITS/AWARDS PRIVACY/COPYRIGHT GLOSSARY LINKS
FirstGov 2020-Sep-29 16:57 UT
(server date/time)  
NASA Home Page
Site Manager:   Ryan S. Park
Webmaster  Alan B. Chamberlin